Hartford, CT

3:45 AM EST on December 11, 2019 (GMT -0500)
Hartford-brainard

Weather History for KHFD - November, 2019

Change the Weather History Date:

Friday, November 22, 2019

  Actual Average Record
Temperature  
Mean Temperature 45 °F -  
Max Temperature 53 °F 46 °F 72 °F (1931)
Min Temperature 36 °F 29 °F 14 °F (1987)
Degree Days  
Heating Degree Days 20    
Moisture  
Dew Point 35 °F    
Average Humidity 65    
Maximum Humidity 80    
Minimum Humidity 48    
Precipitation  
Precipitation 0.13 in - - ()
Sea Level Pressure  
Sea Level Pressure 29.76 in    
Wind  
Wind Speed 8 mph ()    
Max Wind Speed 21 mph    
Max Gust Speed 34 mph    
Visibility 8.7 miles    
Events Rain    
Averages and records for this station are not official NWS values.
T = Trace of Precipitation, MM = Missing Value Source: Averaged Metar Reports

Daily Weather History Graph

Daily Weather History Graph

Search for Another Location

Airport or City:

Astronomy

Nov. 22, 2019 Rise Set
Actual Time 6:47 AM EST 4:25 PM EST
Civil Twilight 6:17 AM EST 4:55 PM EST
Nautical Twilight 5:43 AM EST 5:29 PM EST
Astronomical Twilight 5:10 AM EST 6:02 PM EST
Moon 1:45 AM EST (11/22) 2:28 PM EST (11/22)
Length of Visible Light 10h 37m
Length of Day
9h 37m
Waning Crescent, 20% of the Moon is Illuminated
Nov 22
Waning Crescent
Nov 26
New
Dec 4
First Quarter
Dec 12
Full
Dec 18
Last Quarter

Hourly Weather History & Observations

Time (EST) Temp. Windchill Dew Point Humidity Pressure Visibility Wind Dir Wind Speed Gust Speed Precip Events Conditions
12:53 AM 45.0 °F 41.2 °F 37.0 °F 74% 29.94 in 10.0 mi SSW 6.9 mph - N/A   Overcast
1:53 AM 45.0 °F 41.2 °F 37.9 °F 76% 29.93 in 10.0 mi South 6.9 mph - N/A   Overcast
2:53 AM 46.0 °F 42.5 °F 37.9 °F 73% 29.89 in 10.0 mi South 6.9 mph - N/A   Overcast
3:53 AM 48.0 °F - 37.0 °F 66% 29.85 in 10.0 mi South 6.9 mph - N/A   Overcast
4:53 AM 48.0 °F - 36.0 °F 63% 29.84 in 10.0 mi South 9.2 mph - N/A   Overcast
5:53 AM 48.9 °F - 36.0 °F 61% 29.83 in 10.0 mi SSW 8.1 mph - N/A   Overcast
6:53 AM 48.9 °F - 37.0 °F 64% 29.80 in 10.0 mi SSW 9.2 mph - N/A   Overcast
7:53 AM 48.9 °F - 37.0 °F 64% 29.78 in 10.0 mi SSW 9.2 mph - N/A   Overcast
8:53 AM 50.0 °F - 37.9 °F 63% 29.74 in 10.0 mi SSW 10.4 mph - N/A   Overcast
9:53 AM 50.0 °F - 37.9 °F 63% 29.72 in 10.0 mi South 11.5 mph 17.3 mph N/A   Overcast
10:53 AM 52.0 °F - 39.9 °F 63% 29.69 in 10.0 mi SSW 10.4 mph - N/A   Overcast
11:53 AM 53.1 °F - 41.0 °F 64% 29.64 in 10.0 mi South 6.9 mph - 0.00 in Rain Light Rain
12:53 PM 53.1 °F - 42.1 °F 66% 29.60 in 7.0 mi SSW 8.1 mph - 0.00 in Rain Light Rain
1:15 PM 51.1 °F - 44.1 °F 77% 29.62 in 1.8 mi West 4.6 mph - 0.05 in Rain Rain
1:26 PM 51.1 °F - 45.0 °F 80% 29.61 in 3.0 mi SW 3.5 mph - 0.06 in Rain Light Rain
1:46 PM 51.1 °F - 45.0 °F 80% 29.63 in 4.0 mi West 10.4 mph - 0.08 in Rain Rain
1:53 PM 51.1 °F - 45.0 °F 80% 29.64 in 2.5 mi WNW 13.8 mph 21.9 mph 0.10 in Rain Rain
2:06 PM 48.0 °F - 42.1 °F 80% 29.66 in 5.0 mi NNW 9.2 mph 25.3 mph 0.02 in Rain Rain
2:28 PM 46.9 °F - 39.9 °F 77% 29.65 in 10.0 mi NNW 16.1 mph - 0.03 in Rain Light Rain
2:53 PM 46.0 °F 42.5 °F 39.0 °F 76% 29.65 in 10.0 mi NW 6.9 mph 18.4 mph 0.03 in   Overcast
3:53 PM 45.0 °F 38.9 °F 35.1 °F 68% 29.68 in 10.0 mi NW 12.7 mph 20.7 mph 0.00 in   Scattered Clouds
5:53 PM 44.1 °F 35.7 °F 26.1 °F 49% 29.76 in 10.0 mi NW 20.7 mph 34.5 mph N/A   Overcast
6:53 PM 42.1 °F 33.9 °F 25.0 °F 51% 29.79 in 10.0 mi NW 17.3 mph 31.1 mph N/A   Partly Cloudy
7:53 PM 41.0 °F 32.2 °F 24.1 °F 51% 29.83 in 10.0 mi NW 18.4 mph 28.8 mph N/A   Partly Cloudy
8:53 PM 39.9 °F 32.1 °F 23.0 °F 51% 29.86 in 10.0 mi NNW 13.8 mph 23.0 mph N/A   Mostly Cloudy
9:53 PM 39.0 °F 31.8 °F 21.0 °F 49% 29.89 in 10.0 mi WNW 11.5 mph 20.7 mph N/A   Mostly Cloudy
10:53 PM 37.0 °F 29.8 °F 19.0 °F 48% 29.92 in 10.0 mi NW 10.4 mph 25.3 mph N/A   Partly Cloudy
11:53 PM 36.0 °F 28.0 °F 18.0 °F 48% 29.93 in 10.0 mi WNW 11.5 mph 18.4 mph N/A   Clear